Regional Weather Roundup
Issued by NWS

Home | Current Version | Previous Version | Text Only | Print | Product List | Glossary Off
Versions: 1 2 3 4 5 6 7 8 9 10 11 12 13 14 15 16 17 18 19 20

000
ASUS45 KTFX 161316
RWRMT
MONTANA REGIONAL WEATHER ROUNDUP
NATIONAL WEATHER SERVICE GREAT FALLS MT
600 AM MST MON JAN 16 2017

NOTE: "FAIR" INDICATES FEW OR NO CLOUDS BELOW 12000 FEET WITH NO
SIGNIFICANT WEATHER AND/OR OBSTRUCTIONS TO VISIBILITY.

MTZ001>007-043-161400-
WEST OF THE DIVIDE

CITY           SKY/WX    TMP DP  RH WIND       PRES   REMARKS
KALISPELL      CLOUDY    11   8  88 W5        30.36F
MISSOULA       CLEAR     -6  -9  86 CALM      30.40S
BUTTE          CLOUDY   -12 -17  78 S6        30.22R WCI -26
MULLAN PASS    CLEAR     19  14  81 S6        30.15F WCI  11
ANACONDA         N/A      1  -6  71 S3        30.25R
DEER LODGE       N/A     -8 -11  84 CALM      30.30R
EUREKA           N/A     10   7  85 CALM      30.39S
HAMILTON         N/A     -6  -9  84 CALM      30.35S
PLAINS           N/A    -10 -20  61 CALM      30.38F VSB 0
RONAN            N/A      1  -5  76 MISG      30.32F VSB 0
$$

MTZ008-052>055-161400-
SOUTHWEST MONTANA

CITY           SKY/WX    TMP DP  RH WIND       PRES   REMARKS
BOZEMAN        CLOUDY    -6  -9  86 SE8       30.24S WCI -21
DILLON         CLOUDY     7  -7  52 S8        30.21R WCI  -6
W YELLOWSTONE  CLOUDY   -17 -20  83 CALM      30.22R HAZE
ENNIS          CLEAR      3  -4  72 CALM      30.25F
TWIN BRIDGES     N/A     -5 -16  59 SE5       30.17S
$$

MTZ009-010-012-014-046-048-049-054-161400-
EAST SLOPES AND CENTRAL MONTANA

CITY           SKY/WX    TMP DP  RH WIND       PRES   REMARKS
CUT BANK       CLEAR     26  14  60 W22       30.06S WCI  12
GREAT FALLS    CLOUDY    22  10  60 S18       30.09F WCI   7
MALMSTROM AFB  CLOUDY    19  11  72 SW15      30.11F WCI   5
HELENA         CLOUDY    -8 -12  83 CALM      30.27R FOG
AUGUSTA          N/A     28  15  57 W13       30.07F WCI  17
BOWMANS CRNR     N/A     15   6  68 S18       30.08F WCI  -2
CHOTEAU          N/A     23  12  63 S8        30.09S WCI  14
CONRAD           N/A      9   2  73 S1        30.09R
FAIRFIELD        N/A     21  10  61 SW16      30.08F WCI   7
POWER            N/A     11   3  72 S5        30.09S
RAYNESFORD       N/A     31  12  46 S24       30.09F WCI  17
ULM              N/A     17  10  71 MISG      30.13S
$$

MTZ011-013-016-021-045-047-050-051-161400-
NORTH CENTRAL MONTANA

CITY           SKY/WX    TMP DP  RH WIND       PRES   REMARKS
HAVRE          CLOUDY    10   5  80 W10       30.12F WCI  -4
LEWISTOWN      CLOUDY    17   6  62 S3        30.12R
N BAR RANCH      N/A     28  10  47 W8        30.12R WCI  20
CHINOOK          N/A      3   0  85 CALM      30.14R
DENTON           N/A     16   8  71 SW13      30.08F WCI   2
FORT BENTON      N/A     16   7  67 MISG      30.14S
GEYSER           N/A     19   9  63 SW7       30.10S WCI  10
GRASS RANGE      N/A     24  12  60 SW12      30.08R WCI  13
JUDITH GAP       N/A     23   9  53 CALM      30.10S
ROY              N/A     22  12  67 MISG      30.09S
STANFORD         N/A     20  10  63 CALM      30.09F
WINIFRED         N/A     24  11  56 S6        30.10S WCI  17
$$

MTZ017>020-022>027-061-062-161400-
NORTHEAST MONTANA

CITY           SKY/WX    TMP DP  RH WIND       PRES   REMARKS
GLASGOW        CLOUDY     3   0  87 NW9       30.11R WCI -12
JORDAN           N/A     12   6  77 W8        30.12R WCI   0
SIDNEY         CLOUDY     3  -1  83 S8        30.11R WCI -10
WOLF POINT     CLOUDY     5   0  79 SW9       30.13R WCI  -9
PLENTYWOOD       N/A     12   9  85 NW6       30.06S WCI   3
POPLAR           N/A      1  -2  85 CALM      30.13R
SCOBEY           N/A      7  -1  69 CALM      30.05R
$$

MTZ028>42-056>058-161400-
SOUTHCENTRAL AND SOUTHEAST MONTANA

CITY           SKY/WX    TMP DP  RH WIND       PRES   REMARKS
BAKER          CLOUDY    15   5  64 W18       30.07S WCI  -2
BILLINGS       CLOUDY    15   3  59 SW23      30.14R WCI  -3
LIVINGSTON     CLOUDY    16   4  59 W15       30.18R WCI   1
MILES CITY     CLOUDY     6  -1  73 CALM      30.14R
BIG TIMBER     CLEAR     25   7  46 W30G38    30.14R WCI   8
EKALAKA          N/A     17   2  52 NW1       30.04S
FORSYTH          N/A      9   3  78 SW3       30.15R
HARLOWTON        N/A     25   9  50 NW26      30.12R WCI   9
LAUREL           N/A      8  -4  58 W6        30.12R WCI  -2
$$

REGIONAL REPORTS...DAKOTAS

CITY           SKY/WX    TMP DP  RH WIND       PRES   REMARKS
WILLISTON      CLOUDY     5   2  87 CALM      30.08R
MINOT          CLOUDY    13   7  77 SW10      30.02R WCI   0
DICKINSON      CLOUDY    13   6  74 W17       30.02R WCI  -4
BEACH            N/A     14   7  73 W12       30.10R WCI   0
CROSBY           N/A      7   5  92 SW6       30.07R WCI  -3
TIOGA            N/A      9   7  92 W13       30.04S WCI  -7
WATFORD CITY     N/A      7   1  78 SW7       30.08R WCI  -5
BISMARCK       CLOUDY    -8 -14  74 CALM      30.07S
GRAND FORKS    CLOUDY     4  -2  76 S6        30.04R WCI  -7
FARGO          CLOUDY     8   5  87 S8        30.08R WCI  -4
BUFFALO SD       N/A     14   4  64 W12       29.99F WCI   0
RAPID CITY     CLOUDY    25  10  53 N16       30.06R WCI  12
$$

REGIONAL REPORTS...WYOMING/IDAHO/WASHINGTON

CITY           SKY/WX    TMP DP  RH WIND       PRES   REMARKS
GILLETTE       CLOUDY    19   7  59 W7        30.11R WCI  10
SHERIDAN       CLOUDY    14   2  58 S6        30.12S WCI   5
BUFFALO WY     CLOUDY    24   2  38 NW6       30.10S WCI  17
CODY           CLOUDY    13   4  67 S3        30.13R
YELLOWSTONE LA   N/A    -18 -23  77 CALM      30.17R
IDAHO FALLS    FOG        0  -2  91 VRB3      30.33R VSB 1/4
SALMON         CLOUDY   -26 -26 100 CALM      30.52R
BOISE          PTCLDY     2  -1  88 SE5       30.43F FOG
SPOKANE        SNOW       2   0  91 W3        30.38R VSB 1/2
$$

REGIONAL REPORTS...ALBERTA

CITY           SKY/WX    TMP DP  RH WIND       PRES   REMARKS
EDMONTON       CLEAR     25   9  50 SW12      29.83F WCI  14
CALGARY        PTCLDY    27  14  59 SW9       29.94F WCI  17
LETHBRIDGE     PTCLDY    21  14  73 W13       30.01F WCI   9
MEDICINE HAT   CLOUDY    12   7  79 SW9       30.07S WCI   0
WATERTON GATE    N/A     27  12  54 SW28G38     N/A  WCI  11
CARDSTON         N/A     25  10  54 SW8         N/A  WCI  16
MILK RIVER       N/A     14   9  79 NW3         N/A
ONEFOUR          N/A     12   9  85 NE3         N/A
$$

REGIONAL REPORTS...SASKATCHEWAN

CITY           SKY/WX    TMP DP  RH WIND       PRES   REMARKS
SWIFT CURRENT  CLEAR     21  16  79 SW16      30.03R WCI   7
REGINA         CLEAR      9   7  92 W3        30.04R
SASKATOON      PTCLDY    12   9  85 SW10      30.01S WCI  -1
CYPRESS HILLS    N/A     27  16  63 S5          N/A
VAL MARIE        N/A     -4  -9  77 SW1         N/A
ROCKGLEN         N/A     23  18  80 W3          N/A
$$




USA.gov is the U.S. government's official web portal to all federal, state and local government web resources and services.